Year,Month,Day,Hour,Minute,Value (Times are PST for windspeed in km/hr)
2010,04,02,00,00,3.90
2010,04,02,00,01,16.60
2010,04,02,00,02,21.20
2010,04,02,00,03,22.70
2010,04,02,00,04,18.40
2010,04,02,00,05,17.20
2010,04,02,00,06,16.50
2010,04,02,00,07,21.90
2010,04,02,00,08,16.70
2010,04,02,00,09,19.10
2010,04,02,00,10,21.90
2010,04,02,00,11,18.30
2010,04,02,00,12,17.60
2010,04,02,00,13,27.00
2010,04,02,00,14,26.00
2010,04,02,00,15,18.90
2010,04,02,00,16,19.20
2010,04,02,00,17,13.40
2010,04,02,00,18,22.20
2010,04,02,00,19,18.90
2010,04,02,00,20,16.80
2010,04,02,00,21,14.60
2010,04,02,00,22,16.90
2010,04,02,00,23,22.10
2010,04,02,00,24,18.00
2010,04,02,00,25,19.30
2010,04,02,00,26,23.40
2010,04,02,00,27,17.50
2010,04,02,00,28,23.80
2010,04,02,00,29,20.50
2010,04,02,00,30,20.80
2010,04,02,00,31,22.60
2010,04,02,00,32,26.00
2010,04,02,00,33,19.90
2010,04,02,00,34,27.20
2010,04,02,00,35,19.60
2010,04,02,00,36,23.40
2010,04,02,00,37,25.10
2010,04,02,00,38,23.80
2010,04,02,00,39,25.80
2010,04,02,00,40,18.00
2010,04,02,00,41,19.10
2010,04,02,00,42,23.10
2010,04,02,00,43,20.90
2010,04,02,00,44,17.90
2010,04,02,00,45,20.70
2010,04,02,00,46,24.90
2010,04,02,00,47,22.00
2010,04,02,00,48,25.70
2010,04,02,00,49,16.80
2010,04,02,00,50,20.70
2010,04,02,00,51,20.10
2010,04,02,00,52,16.70
2010,04,02,00,53,13.70
2010,04,02,00,54,23.70
2010,04,02,00,55,20.50
2010,04,02,00,56,17.00
2010,04,02,00,57,24.00
2010,04,02,00,58,17.10
2010,04,02,00,59,24.50
2010,04,02,01,00,21.70
2010,04,02,01,01,18.50
2010,04,02,01,02,22.70
2010,04,02,01,03,20.70
2010,04,02,01,04,23.00
2010,04,02,01,05,20.80
2010,04,02,01,06,17.60
2010,04,02,01,07,21.40
2010,04,02,01,08,26.10
2010,04,02,01,09,25.20
2010,04,02,01,10,13.30
2010,04,02,01,11,18.20
2010,04,02,01,12,19.00
2010,04,02,01,13,15.20
2010,04,02,01,14,17.40
2010,04,02,01,15,23.30
2010,04,02,01,16,14.70
2010,04,02,01,17,16.00
2010,04,02,01,18,22.30
2010,04,02,01,19,19.80
2010,04,02,01,20,17.50
2010,04,02,01,21,18.70
2010,04,02,01,22,30.30
2010,04,02,01,23,26.40
2010,04,02,01,24,25.90
2010,04,02,01,25,19.70
2010,04,02,01,26,23.00
2010,04,02,01,27,19.00
2010,04,02,01,28,23.90
2010,04,02,01,29,26.90
2010,04,02,01,30,18.70
2010,04,02,01,31,20.80
2010,04,02,01,32,23.20
2010,04,02,01,33,22.20
2010,04,02,01,34,16.30
2010,04,02,01,35,31.70
2010,04,02,01,36,26.30
2010,04,02,01,37,24.40
2010,04,02,01,38,28.90
2010,04,02,01,39,25.80
2010,04,02,01,40,15.80
2010,04,02,01,41,20.80
2010,04,02,01,42,19.70
2010,04,02,01,43,27.40
2010,04,02,01,44,19.20
2010,04,02,01,45,24.10
2010,04,02,01,46,19.10
2010,04,02,01,47,21.00
2010,04,02,01,48,19.70
2010,04,02,01,49,13.10
2010,04,02,01,50,23.60
2010,04,02,01,51,24.20
2010,04,02,01,52,27.50
2010,04,02,01,53,19.30
2010,04,02,01,54,29.40
2010,04,02,01,55,16.40
2010,04,02,01,56,23.70
2010,04,02,01,57,28.20
2010,04,02,01,58,24.30
2010,04,02,01,59,21.70
2010,04,02,02,00,22.90
2010,04,02,02,01,25.70
2010,04,02,02,02,17.90
2010,04,02,02,03,24.90
2010,04,02,02,04,16.90
2010,04,02,02,05,25.40
2010,04,02,02,06,23.30
2010,04,02,02,07,25.70
2010,04,02,02,08,19.80
2010,04,02,02,09,29.80
2010,04,02,02,10,22.30
2010,04,02,02,11,18.70
2010,04,02,02,12,19.10
2010,04,02,02,13,16.40
2010,04,02,02,14,27.20
2010,04,02,02,15,22.70
2010,04,02,02,16,16.60
2010,04,02,02,17,22.10
2010,04,02,02,18,21.50
2010,04,02,02,19,21.90
2010,04,02,02,20,30.70
2010,04,02,02,21,27.60
2010,04,02,02,22,21.70
2010,04,02,02,23,29.40
2010,04,02,02,24,21.60
2010,04,02,02,25,19.90
2010,04,02,02,26,23.00
2010,04,02,02,27,19.50
2010,04,02,02,28,26.50
2010,04,02,02,29,21.80
2010,04,02,02,30,16.60
2010,04,02,02,31,24.30
2010,04,02,02,32,20.60
2010,04,02,02,33,18.30
2010,04,02,02,34,21.00
2010,04,02,02,35,21.30
2010,04,02,02,36,18.30
2010,04,02,02,37,12.70
2010,04,02,02,38,23.40
2010,04,02,02,39,19.30
2010,04,02,02,40,16.20
2010,04,02,02,41,15.00
2010,04,02,02,42,20.50
2010,04,02,02,43,17.60
2010,04,02,02,44,25.50
2010,04,02,02,45,18.70
2010,04,02,02,46,17.50
2010,04,02,02,47,18.30
2010,04,02,02,48,19.70
2010,04,02,02,49,19.20
2010,04,02,02,50,24.20
2010,04,02,02,51,27.40
2010,04,02,02,52,18.90
2010,04,02,02,53,10.10
2010,04,02,02,54,23.60
2010,04,02,02,55,25.00
2010,04,02,02,56,26.00
2010,04,02,02,57,20.10
2010,04,02,02,58,25.70
2010,04,02,02,59,13.10
2010,04,02,03,00,12.90
2010,04,02,03,01,21.90
2010,04,02,03,02,14.80
2010,04,02,03,03,24.90
2010,04,02,03,04,25.80
2010,04,02,03,05,20.50
2010,04,02,03,06,16.70
2010,04,02,03,07,19.10
2010,04,02,03,08,23.40
2010,04,02,03,09,15.20
2010,04,02,03,10,21.60
2010,04,02,03,11,14.10
2010,04,02,03,12,22.70
2010,04,02,03,13,21.80
2010,04,02,03,14,18.90
2010,04,02,03,15,29.50
2010,04,02,03,16,19.80
2010,04,02,03,17,21.20
2010,04,02,03,18,26.50
2010,04,02,03,19,25.60
2010,04,02,03,20,20.50
2010,04,02,03,21,20.70
2010,04,02,03,22,17.30
2010,04,02,03,23,13.10
2010,04,02,03,24,20.00
2010,04,02,03,25,21.50
2010,04,02,03,26,16.90
2010,04,02,03,27,27.10
2010,04,02,03,28,17.50
2010,04,02,03,29,27.70
2010,04,02,03,30,21.10
2010,04,02,03,31,21.50
2010,04,02,03,32,22.50
2010,04,02,03,33,13.30
2010,04,02,03,34,13.60
2010,04,02,03,35,16.90
2010,04,02,03,36,16.20
2010,04,02,03,37,21.00
2010,04,02,03,38,16.30
2010,04,02,03,39,8.90
2010,04,02,03,40,13.00
2010,04,02,03,41,16.00
2010,04,02,03,42,18.90
2010,04,02,03,43,11.00
2010,04,02,03,44,16.90
2010,04,02,03,45,10.30
2010,04,02,03,46,11.00
2010,04,02,03,47,15.60
2010,04,02,03,48,14.40
2010,04,02,03,49,9.00
2010,04,02,03,50,10.00
2010,04,02,03,51,4.60
2010,04,02,03,52,6.30
2010,04,02,03,53,17.00
2010,04,02,03,54,15.80
2010,04,02,03,55,8.20
2010,04,02,03,56,19.20
2010,04,02,03,57,16.30
2010,04,02,03,58,8.20
2010,04,02,03,59,11.30
2010,04,02,04,00,8.00
2010,04,02,04,01,7.40
2010,04,02,04,02,15.20
2010,04,02,04,03,15.20
2010,04,02,04,04,13.80
2010,04,02,04,05,10.80
2010,04,02,04,06,11.60
2010,04,02,04,07,12.60
2010,04,02,04,08,8.70
2010,04,02,04,09,10.50
2010,04,02,04,10,11.10
2010,04,02,04,11,9.60
2010,04,02,04,12,12.30
2010,04,02,04,13,10.20
2010,04,02,04,14,8.90
2010,04,02,04,15,6.80
2010,04,02,04,16,9.40
2010,04,02,04,17,2.70
2010,04,02,04,18,4.60
2010,04,02,04,19,3.80
2010,04,02,04,20,10.30
2010,04,02,04,21,7.00
2010,04,02,04,22,14.90
2010,04,02,04,23,5.90
2010,04,02,04,24,18.60
2010,04,02,04,25,8.70
2010,04,02,04,26,9.70
2010,04,02,04,27,18.40
2010,04,02,04,28,15.50
2010,04,02,04,29,14.70
2010,04,02,04,30,15.50
2010,04,02,04,31,9.60
2010,04,02,04,32,17.90
2010,04,02,04,33,11.30
2010,04,02,04,34,15.50
2010,04,02,04,35,17.30
2010,04,02,04,36,14.40
2010,04,02,04,37,18.30
2010,04,02,04,38,13.00
2010,04,02,04,39,19.60
2010,04,02,04,40,16.10
2010,04,02,04,41,20.40
2010,04,02,04,42,18.50
2010,04,02,04,43,10.80
2010,04,02,04,44,16.90
2010,04,02,04,45,21.40
2010,04,02,04,46,16.10
2010,04,02,04,47,20.60
2010,04,02,04,48,25.80
2010,04,02,04,49,15.90
2010,04,02,04,50,17.20
2010,04,02,04,51,30.30
2010,04,02,04,52,21.80
2010,04,02,04,53,24.60
2010,04,02,04,54,28.20
2010,04,02,04,55,18.70
2010,04,02,04,56,22.00
2010,04,02,04,57,18.80
2010,04,02,04,58,20.20
2010,04,02,04,59,14.40
2010,04,02,05,00,22.70
2010,04,02,05,01,11.10
2010,04,02,05,02,20.50
2010,04,02,05,03,20.30
2010,04,02,05,04,19.20
2010,04,02,05,05,22.30
2010,04,02,05,06,23.20
2010,04,02,05,07,16.50
2010,04,02,05,08,20.50
2010,04,02,05,09,13.80
2010,04,02,05,10,28.60
2010,04,02,05,11,21.00
2010,04,02,05,12,16.30
2010,04,02,05,13,16.30
2010,04,02,05,14,22.10
2010,04,02,05,15,11.10
2010,04,02,05,16,28.10
2010,04,02,05,17,26.60
2010,04,02,05,18,18.50
2010,04,02,05,19,22.90
2010,04,02,05,20,14.70
2010,04,02,05,21,19.60
2010,04,02,05,22,25.60
2010,04,02,05,23,16.70
2010,04,02,05,24,20.00
2010,04,02,05,25,17.40
2010,04,02,05,26,16.70
2010,04,02,05,27,22.90
2010,04,02,05,28,30.40
2010,04,02,05,29,23.20
2010,04,02,05,30,21.70
2010,04,02,05,31,22.90
2010,04,02,05,32,21.70
2010,04,02,05,33,22.60
2010,04,02,05,34,24.90
2010,04,02,05,35,17.20
2010,04,02,05,36,17.20
2010,04,02,05,37,25.40
2010,04,02,05,38,18.20
2010,04,02,05,39,24.90
2010,04,02,05,40,20.70
2010,04,02,05,41,34.50
2010,04,02,05,42,28.70
2010,04,02,05,43,21.30
2010,04,02,05,44,18.60
2010,04,02,05,45,23.00
2010,04,02,05,46,25.30
2010,04,02,05,47,35.70
2010,04,02,05,48,26.40
2010,04,02,05,49,22.10
2010,04,02,05,50,21.30
2010,04,02,05,51,24.90
2010,04,02,05,52,18.50
2010,04,02,05,53,20.60
2010,04,02,05,54,32.70
2010,04,02,05,55,27.80
2010,04,02,05,56,23.90
2010,04,02,05,57,28.60
2010,04,02,05,58,15.20
2010,04,02,05,59,29.50
2010,04,02,06,00,34.40
2010,04,02,06,01,37.90
2010,04,02,06,02,27.80
2010,04,02,06,03,25.80
2010,04,02,06,04,20.70
2010,04,02,06,05,23.00
2010,04,02,06,06,36.20
2010,04,02,06,07,31.40
2010,04,02,06,08,30.80
2010,04,02,06,09,23.30
2010,04,02,06,10,31.60
2010,04,02,06,11,32.00
2010,04,02,06,12,29.40
2010,04,02,06,13,31.10
2010,04,02,06,14,34.40
2010,04,02,06,15,24.90
2010,04,02,06,16,23.80
2010,04,02,06,17,23.00
2010,04,02,06,18,42.20
2010,04,02,06,19,28.00
2010,04,02,06,20,25.70
2010,04,02,06,21,30.10
2010,04,02,06,22,34.90
2010,04,02,06,23,26.40
2010,04,02,06,24,31.20
2010,04,02,06,25,33.50
2010,04,02,06,26,27.40
2010,04,02,06,27,35.30
2010,04,02,06,28,17.10
2010,04,02,06,29,34.10
2010,04,02,06,30,30.60
2010,04,02,06,31,30.00
2010,04,02,06,32,29.60
2010,04,02,06,33,31.40
2010,04,02,06,34,40.20
2010,04,02,06,35,32.30
2010,04,02,06,36,34.80
2010,04,02,06,37,32.70
2010,04,02,06,38,29.60
2010,04,02,06,39,28.20
2010,04,02,06,40,33.90
2010,04,02,06,41,27.70
2010,04,02,06,42,31.40
2010,04,02,06,43,38.90
2010,04,02,06,44,36.40
2010,04,02,06,45,30.30
2010,04,02,06,46,29.60
2010,04,02,06,47,35.20
2010,04,02,06,48,34.20
2010,04,02,06,49,25.70
2010,04,02,06,50,24.20
2010,04,02,06,51,29.70
2010,04,02,06,52,36.10
2010,04,02,06,53,29.50
2010,04,02,06,54,32.70
2010,04,02,06,55,31.50
2010,04,02,06,56,30.10
2010,04,02,06,57,27.70
2010,04,02,06,58,29.70
2010,04,02,06,59,39.00
2010,04,02,07,00,31.30
2010,04,02,07,01,28.50
2010,04,02,07,02,30.90
2010,04,02,07,03,33.00
2010,04,02,07,04,33.20
2010,04,02,07,05,34.50
2010,04,02,07,06,30.30
2010,04,02,07,07,24.00
2010,04,02,07,08,32.60
2010,04,02,07,09,25.00
2010,04,02,07,10,27.80
2010,04,02,07,11,27.70
2010,04,02,07,12,20.40
2010,04,02,07,13,30.20
2010,04,02,07,14,28.50
2010,04,02,07,15,30.20
2010,04,02,07,16,27.90
2010,04,02,07,17,28.40
2010,04,02,07,18,39.60
2010,04,02,07,19,27.70
2010,04,02,07,20,19.20
2010,04,02,07,21,31.70
2010,04,02,07,22,29.10
2010,04,02,07,23,24.90
2010,04,02,07,24,26.10
2010,04,02,07,25,33.50
2010,04,02,07,26,39.10
2010,04,02,07,27,36.00
2010,04,02,07,28,18.20
2010,04,02,07,29,23.20
2010,04,02,07,30,28.30
2010,04,02,07,31,21.10
2010,04,02,07,32,23.60
2010,04,02,07,33,30.30
2010,04,02,07,34,33.10
2010,04,02,07,35,14.70
2010,04,02,07,36,35.10
2010,04,02,07,37,17.50
2010,04,02,07,38,33.40
2010,04,02,07,39,25.30
2010,04,02,07,40,34.70
2010,04,02,07,41,31.40
2010,04,02,07,42,26.40
2010,04,02,07,43,24.10
2010,04,02,07,44,21.90
2010,04,02,07,45,24.50
2010,04,02,07,46,28.00
2010,04,02,07,47,33.30
2010,04,02,07,48,23.30
2010,04,02,07,49,29.20
2010,04,02,07,50,25.80
2010,04,02,07,51,26.50
2010,04,02,07,52,28.60
2010,04,02,07,53,31.70
2010,04,02,07,54,25.90
2010,04,02,07,55,33.30
2010,04,02,07,56,33.90
2010,04,02,07,57,30.60
2010,04,02,07,58,30.70
2010,04,02,07,59,28.20
2010,04,02,08,00,24.40
2010,04,02,08,01,35.90
2010,04,02,08,02,29.90
2010,04,02,08,03,33.00
2010,04,02,08,04,26.30
2010,04,02,08,05,37.10
2010,04,02,08,06,24.60
2010,04,02,08,07,24.50
2010,04,02,08,08,31.30
2010,04,02,08,09,20.20
2010,04,02,08,10,29.20
2010,04,02,08,11,41.60
2010,04,02,08,12,25.90
2010,04,02,08,13,23.80
2010,04,02,08,14,30.20
2010,04,02,08,15,24.40
2010,04,02,08,16,30.60
2010,04,02,08,17,27.00
2010,04,02,08,18,29.00
2010,04,02,08,19,31.50
2010,04,02,08,20,27.50
2010,04,02,08,21,32.80
2010,04,02,08,22,33.60
2010,04,02,08,23,29.40
2010,04,02,08,24,35.00
2010,04,02,08,25,32.40
2010,04,02,08,26,29.40
2010,04,02,08,27,34.30
2010,04,02,08,28,26.90
2010,04,02,08,29,38.40
2010,04,02,08,30,30.70
2010,04,02,08,31,19.70
2010,04,02,08,32,23.90
2010,04,02,08,33,30.60
2010,04,02,08,34,25.00
2010,04,02,08,35,24.60
2010,04,02,08,36,37.20
2010,04,02,08,37,23.00
2010,04,02,08,38,18.00
2010,04,02,08,39,20.60
2010,04,02,08,40,28.10
2010,04,02,08,41,29.70
2010,04,02,08,42,30.00
2010,04,02,08,43,24.60
2010,04,02,08,44,32.70
2010,04,02,08,45,18.40
2010,04,02,08,46,21.10
2010,04,02,08,47,25.50
2010,04,02,08,48,21.90
2010,04,02,08,49,24.30
2010,04,02,08,50,19.30
2010,04,02,08,51,27.60
2010,04,02,08,52,21.60
2010,04,02,08,53,29.50
2010,04,02,08,54,16.40
2010,04,02,08,55,30.10
2010,04,02,08,56,30.60
2010,04,02,08,57,30.50
2010,04,02,08,58,27.50
2010,04,02,08,59,19.70
2010,04,02,09,00,29.50
2010,04,02,09,01,19.90
2010,04,02,09,02,24.60
2010,04,02,09,03,35.60
2010,04,02,09,04,27.30
2010,04,02,09,05,25.30
2010,04,02,09,06,36.10
2010,04,02,09,07,27.20
2010,04,02,09,08,28.80
2010,04,02,09,09,29.50
2010,04,02,09,10,19.50
2010,04,02,09,11,18.60
2010,04,02,09,12,30.80
2010,04,02,09,13,31.30
2010,04,02,09,14,29.10
2010,04,02,09,15,20.80
2010,04,02,09,16,25.50
2010,04,02,09,17,24.10
2010,04,02,09,18,26.40
2010,04,02,09,19,34.30
2010,04,02,09,20,27.70
2010,04,02,09,21,32.50
2010,04,02,09,22,35.20
2010,04,02,09,23,22.00
2010,04,02,09,24,26.00
2010,04,02,09,25,16.20
2010,04,02,09,26,20.90
2010,04,02,09,27,22.40
2010,04,02,09,28,28.80
2010,04,02,09,29,36.90
2010,04,02,09,30,29.80
2010,04,02,09,31,23.70
2010,04,02,09,32,34.50
2010,04,02,09,33,25.50
2010,04,02,09,34,24.00
2010,04,02,09,35,26.60
2010,04,02,09,36,30.80
2010,04,02,09,37,20.70
2010,04,02,09,38,41.00
2010,04,02,09,39,27.90
2010,04,02,09,40,44.30
2010,04,02,09,41,28.00
2010,04,02,09,42,24.20
2010,04,02,09,43,15.20
2010,04,02,09,44,28.20
2010,04,02,09,45,30.50
2010,04,02,09,46,38.00
2010,04,02,09,47,26.70
2010,04,02,09,48,22.80
2010,04,02,09,49,19.20
2010,04,02,09,50,26.10
2010,04,02,09,51,38.60
2010,04,02,09,52,36.90
2010,04,02,09,53,39.80
2010,04,02,09,54,27.50
2010,04,02,09,55,29.40
2010,04,02,09,56,31.90
2010,04,02,09,57,35.60
2010,04,02,09,58,41.80
2010,04,02,09,59,37.30
2010,04,02,10,00,38.00
2010,04,02,10,01,30.00
2010,04,02,10,02,18.90
2010,04,02,10,03,33.10
2010,04,02,10,04,28.00
2010,04,02,10,05,26.60
2010,04,02,10,06,30.80
2010,04,02,10,07,34.70
2010,04,02,10,08,33.20
2010,04,02,10,09,33.20
2010,04,02,10,10,23.30
2010,04,02,10,11,18.20
2010,04,02,10,12,23.40
2010,04,02,10,13,24.70
2010,04,02,10,14,24.10
2010,04,02,10,15,31.80
2010,04,02,10,16,33.60
2010,04,02,10,17,24.10
2010,04,02,10,18,23.90
2010,04,02,10,19,42.90
2010,04,02,10,20,44.00
2010,04,02,10,21,43.20
2010,04,02,10,22,24.70
2010,04,02,10,23,24.70
2010,04,02,10,24,31.40
2010,04,02,10,25,31.70
2010,04,02,10,26,32.10
2010,04,02,10,27,44.00
2010,04,02,10,28,52.10
2010,04,02,10,29,41.20
2010,04,02,10,30,42.20
2010,04,02,10,31,31.30
2010,04,02,10,32,34.20
2010,04,02,10,33,30.40
2010,04,02,10,34,27.60
2010,04,02,10,35,28.10
2010,04,02,10,36,25.40
2010,04,02,10,37,31.10
2010,04,02,10,38,40.10
2010,04,02,10,39,30.10
2010,04,02,10,40,27.60
2010,04,02,10,41,27.70
2010,04,02,10,42,30.50
2010,04,02,10,43,28.50
2010,04,02,10,44,36.00
2010,04,02,10,45,24.10
2010,04,02,10,46,33.60
2010,04,02,10,47,37.60
2010,04,02,10,48,21.30
2010,04,02,10,49,27.90
2010,04,02,10,50,32.60
2010,04,02,10,51,34.60
2010,04,02,10,52,27.90
2010,04,02,10,53,24.60
2010,04,02,10,54,36.00
2010,04,02,10,55,21.80
2010,04,02,10,56,39.30
2010,04,02,10,57,18.60
2010,04,02,10,58,24.10
2010,04,02,10,59,36.80
2010,04,02,11,00,30.20
2010,04,02,11,01,34.60
2010,04,02,11,02,30.10
2010,04,02,11,03,22.60
2010,04,02,11,04,20.90
2010,04,02,11,05,28.30
2010,04,02,11,06,36.40
2010,04,02,11,07,27.20
2010,04,02,11,08,35.00
2010,04,02,11,09,32.90
2010,04,02,11,10,30.60
2010,04,02,11,11,27.20
2010,04,02,11,12,30.30
2010,04,02,11,13,27.60
2010,04,02,11,14,30.70
2010,04,02,11,15,25.90
2010,04,02,11,16,33.50
2010,04,02,11,17,27.10
2010,04,02,11,18,33.80
2010,04,02,11,19,40.70
2010,04,02,11,20,30.30
2010,04,02,11,21,29.40
2010,04,02,11,22,39.80
2010,04,02,11,23,31.40
2010,04,02,11,24,23.00
2010,04,02,11,25,37.10
2010,04,02,11,26,24.90
2010,04,02,11,27,24.70
2010,04,02,11,28,32.50
2010,04,02,11,29,31.20
2010,04,02,11,30,35.60
2010,04,02,11,31,36.50
2010,04,02,11,32,23.40
2010,04,02,11,33,30.50
2010,04,02,11,34,20.50
2010,04,02,11,35,35.60
2010,04,02,11,36,29.90
2010,04,02,11,37,31.90
2010,04,02,11,38,35.10
2010,04,02,11,39,26.60
2010,04,02,11,40,22.70
2010,04,02,11,41,33.50
2010,04,02,11,42,26.10
2010,04,02,11,43,16.50
2010,04,02,11,44,28.80
2010,04,02,11,45,26.80
2010,04,02,11,46,29.10
2010,04,02,11,47,40.40
2010,04,02,11,48,43.80
2010,04,02,11,49,33.00
2010,04,02,11,50,27.90
2010,04,02,11,51,28.50
2010,04,02,11,52,41.50
2010,04,02,11,53,31.50
2010,04,02,11,54,20.80
2010,04,02,11,55,31.20
2010,04,02,11,56,13.50
2010,04,02,11,57,30.80
2010,04,02,11,58,26.40
2010,04,02,11,59,37.70
2010,04,02,12,00,29.50
2010,04,02,12,01,22.00
2010,04,02,12,02,33.40
2010,04,02,12,03,34.90
2010,04,02,12,04,33.70
2010,04,02,12,05,40.30
2010,04,02,12,06,28.20
2010,04,02,12,07,17.50
2010,04,02,12,08,30.20
2010,04,02,12,09,31.90
2010,04,02,12,10,34.90
2010,04,02,12,11,26.20
2010,04,02,12,12,26.90
2010,04,02,12,13,30.80
2010,04,02,12,14,26.80
2010,04,02,12,15,35.40
2010,04,02,12,16,29.80
2010,04,02,12,17,34.50
2010,04,02,12,18,26.80
2010,04,02,12,19,34.60
2010,04,02,12,20,32.30
2010,04,02,12,21,30.00
2010,04,02,12,22,28.20
2010,04,02,12,23,37.30
2010,04,02,12,24,32.50
2010,04,02,12,25,34.10
2010,04,02,12,26,24.60
2010,04,02,12,27,28.90
2010,04,02,12,28,35.20
2010,04,02,12,29,25.80
2010,04,02,12,30,35.70
2010,04,02,12,31,32.50
2010,04,02,12,32,33.10
2010,04,02,12,33,34.90
2010,04,02,12,34,37.20
2010,04,02,12,35,37.00
2010,04,02,12,36,30.30
2010,04,02,12,37,37.40
2010,04,02,12,38,36.80
2010,04,02,12,39,31.10
2010,04,02,12,40,35.50
2010,04,02,12,41,33.30
2010,04,02,12,42,28.40
2010,04,02,12,43,37.70
2010,04,02,12,44,27.10
2010,04,02,12,45,35.80
2010,04,02,12,46,36.40
2010,04,02,12,47,28.10
2010,04,02,12,48,38.00
2010,04,02,12,49,30.90
2010,04,02,12,50,30.60
2010,04,02,12,51,25.10
2010,04,02,12,52,21.60
2010,04,02,12,53,28.70
2010,04,02,12,54,28.50
2010,04,02,12,55,29.60
2010,04,02,12,56,29.70
2010,04,02,12,57,35.70
2010,04,02,12,58,25.40
2010,04,02,12,59,30.30
2010,04,02,13,00,34.00
2010,04,02,13,01,24.80
2010,04,02,13,02,27.10
2010,04,02,13,03,22.90
2010,04,02,13,04,26.50
2010,04,02,13,05,32.00
2010,04,02,13,06,23.00
2010,04,02,13,07,29.70
2010,04,02,13,08,30.90
2010,04,02,13,09,24.90
2010,04,02,13,10,28.40
2010,04,02,13,11,33.30
2010,04,02,13,12,26.50
2010,04,02,13,13,31.10
2010,04,02,13,14,34.70
2010,04,02,13,15,27.20
2010,04,02,13,16,37.30
2010,04,02,13,17,30.30
2010,04,02,13,18,36.20
2010,04,02,13,19,33.50
2010,04,02,13,20,29.90
2010,04,02,13,21,17.50
2010,04,02,13,22,23.50
2010,04,02,13,23,23.90
2010,04,02,13,24,21.50
2010,04,02,13,25,35.80
2010,04,02,13,26,33.60
2010,04,02,13,27,32.40
2010,04,02,13,28,28.90
2010,04,02,13,29,30.80
2010,04,02,13,30,36.00
2010,04,02,13,31,33.60
2010,04,02,13,32,21.80
2010,04,02,13,33,22.20
2010,04,02,13,34,29.60
2010,04,02,13,35,32.60
2010,04,02,13,36,27.00
2010,04,02,13,37,26.70
2010,04,02,13,38,25.70
2010,04,02,13,39,26.30
2010,04,02,13,40,31.90
2010,04,02,13,41,23.90
2010,04,02,13,42,27.40
2010,04,02,13,43,30.60
2010,04,02,13,44,30.70
2010,04,02,13,45,26.00
2010,04,02,13,46,26.20
2010,04,02,13,47,25.80
2010,04,02,13,48,37.70
2010,04,02,13,49,20.10
2010,04,02,13,50,36.00
2010,04,02,13,51,29.00
2010,04,02,13,52,27.50
2010,04,02,13,53,21.20
2010,04,02,13,54,29.70
2010,04,02,13,55,29.30
2010,04,02,13,56,26.20
2010,04,02,13,57,21.30
2010,04,02,13,58,24.70
2010,04,02,13,59,17.10
2010,04,02,14,00,22.80
2010,04,02,14,01,22.00
2010,04,02,14,02,27.90
2010,04,02,14,03,32.20
2010,04,02,14,04,25.10
2010,04,02,14,05,22.00
2010,04,02,14,06,17.10
2010,04,02,14,07,20.10
2010,04,02,14,08,27.90
2010,04,02,14,09,19.60
2010,04,02,14,10,21.90
2010,04,02,14,11,21.10
2010,04,02,14,12,15.00
2010,04,02,14,13,14.10
2010,04,02,14,14,23.00
2010,04,02,14,15,18.50
2010,04,02,14,16,19.00
2010,04,02,14,17,24.90
2010,04,02,14,18,25.80
2010,04,02,14,19,24.20
2010,04,02,14,20,17.50
2010,04,02,14,21,17.00
2010,04,02,14,22,19.00
2010,04,02,14,23,22.50
2010,04,02,14,24,13.20
2010,04,02,14,25,24.70
2010,04,02,14,26,23.10
2010,04,02,14,27,19.80
2010,04,02,14,28,20.10
2010,04,02,14,29,15.90
2010,04,02,14,30,17.20
2010,04,02,14,31,27.20
2010,04,02,14,32,21.30
2010,04,02,14,33,25.70
2010,04,02,14,34,19.30
2010,04,02,14,35,29.60
2010,04,02,14,36,22.80
2010,04,02,14,37,13.60
2010,04,02,14,38,23.00
2010,04,02,14,39,26.10
2010,04,02,14,40,18.20
2010,04,02,14,41,17.40
2010,04,02,14,42,21.60
2010,04,02,14,43,18.70
2010,04,02,14,44,25.80
2010,04,02,14,45,20.50
2010,04,02,14,46,24.80
2010,04,02,14,47,20.20
2010,04,02,14,48,13.80
2010,04,02,14,49,29.20
2010,04,02,14,50,16.60
2010,04,02,14,51,10.10
2010,04,02,14,52,8.70
2010,04,02,14,53,14.10
2010,04,02,14,54,17.90
2010,04,02,14,55,12.40
2010,04,02,14,56,11.20
2010,04,02,14,57,17.00
2010,04,02,14,58,21.60
2010,04,02,14,59,27.20
2010,04,02,15,00,23.00
2010,04,02,15,01,21.30
2010,04,02,15,02,15.60
2010,04,02,15,03,13.20
2010,04,02,15,04,14.20
2010,04,02,15,05,19.90
2010,04,02,15,06,14.30
2010,04,02,15,07,10.60
2010,04,02,15,08,24.20
2010,04,02,15,09,15.90
2010,04,02,15,10,10.30
2010,04,02,15,11,13.00
2010,04,02,15,12,11.70
2010,04,02,15,13,20.80
2010,04,02,15,14,19.80
2010,04,02,15,15,13.90
2010,04,02,15,16,17.40
2010,04,02,15,17,16.10
2010,04,02,15,18,24.80
2010,04,02,15,19,15.20
2010,04,02,15,20,18.30
2010,04,02,15,21,12.30
2010,04,02,15,22,15.10
2010,04,02,15,23,22.90
2010,04,02,15,24,20.10
2010,04,02,15,25,20.40
2010,04,02,15,26,22.70
2010,04,02,15,27,23.80
2010,04,02,15,28,15.70
2010,04,02,15,29,19.00
2010,04,02,15,30,14.40
2010,04,02,15,31,15.40
2010,04,02,15,32,7.90
2010,04,02,15,33,7.50
2010,04,02,15,34,5.40
2010,04,02,15,35,11.30
2010,04,02,15,36,9.30
2010,04,02,15,37,10.60
2010,04,02,15,38,11.50
2010,04,02,15,39,17.60
2010,04,02,15,40,10.60
2010,04,02,15,41,22.50
2010,04,02,15,42,25.20
2010,04,02,15,43,15.80
2010,04,02,15,44,16.60
2010,04,02,15,45,7.10
2010,04,02,15,46,12.00
2010,04,02,15,47,10.70
2010,04,02,15,48,18.10
2010,04,02,15,49,18.30
2010,04,02,15,50,7.40
2010,04,02,15,51,16.80
2010,04,02,15,52,12.80
2010,04,02,15,53,15.70
2010,04,02,15,54,14.70
2010,04,02,15,55,14.80
2010,04,02,15,56,22.90
2010,04,02,15,57,15.00
2010,04,02,15,58,19.70
2010,04,02,15,59,15.40
2010,04,02,16,00,15.00
2010,04,02,16,01,8.10
2010,04,02,16,02,15.90
2010,04,02,16,03,11.30
2010,04,02,16,04,14.40
2010,04,02,16,05,19.50
2010,04,02,16,06,19.50
2010,04,02,16,07,19.90
2010,04,02,16,08,15.40
2010,04,02,16,09,22.40
2010,04,02,16,10,21.50
2010,04,02,16,11,21.60
2010,04,02,16,12,16.50
2010,04,02,16,13,6.10
2010,04,02,16,14,14.80
2010,04,02,16,15,13.90
2010,04,02,16,16,13.50
2010,04,02,16,17,10.10
2010,04,02,16,18,13.80
2010,04,02,16,19,15.50
2010,04,02,16,20,9.30
2010,04,02,16,21,9.00
2010,04,02,16,22,16.90
2010,04,02,16,23,11.50
2010,04,02,16,24,21.10
2010,04,02,16,25,15.90
2010,04,02,16,26,16.30
2010,04,02,16,27,18.00
2010,04,02,16,28,12.90
2010,04,02,16,29,13.80
2010,04,02,16,30,12.20
2010,04,02,16,31,18.50
2010,04,02,16,32,15.90
2010,04,02,16,33,19.90
2010,04,02,16,34,16.40
2010,04,02,16,35,9.70
2010,04,02,16,36,15.20
2010,04,02,16,37,17.70
2010,04,02,16,38,20.10
2010,04,02,16,39,13.00
2010,04,02,16,40,11.40
2010,04,02,16,41,12.20
2010,04,02,16,42,17.00
2010,04,02,16,43,20.70
2010,04,02,16,44,19.60
2010,04,02,16,45,13.00
2010,04,02,16,46,19.90
2010,04,02,16,47,14.80
2010,04,02,16,48,6.00
2010,04,02,16,49,11.40
2010,04,02,16,50,8.80
2010,04,02,16,51,15.30
2010,04,02,16,52,21.40
2010,04,02,16,53,17.70
2010,04,02,16,54,15.50
2010,04,02,16,55,17.20
2010,04,02,16,56,14.60
2010,04,02,16,57,16.70
2010,04,02,16,58,12.40
2010,04,02,16,59,15.80
2010,04,02,17,00,9.20
2010,04,02,17,01,8.00
2010,04,02,17,02,19.60
2010,04,02,17,03,11.40
2010,04,02,17,04,13.50
2010,04,02,17,05,6.30
2010,04,02,17,06,8.00
2010,04,02,17,07,9.20
2010,04,02,17,08,10.70
2010,04,02,17,09,11.40
2010,04,02,17,10,10.80
2010,04,02,17,11,7.40
2010,04,02,17,12,20.10
2010,04,02,17,13,11.30
2010,04,02,17,14,12.10
2010,04,02,17,15,11.90
2010,04,02,17,16,12.80
2010,04,02,17,17,17.80
2010,04,02,17,18,6.00
2010,04,02,17,19,9.10
2010,04,02,17,20,10.50
2010,04,02,17,21,15.40